Regional Weather Roundup
Issued by NWS

Home | Current Version | Previous Version | Graphics & Text | Print | Product List | Glossary On
Versions: 1 2 3 4 5 6 7 8 9 10 11 12 13 14 15 16 17 18 19 20 21 22 23 24 25 26 27 28 29 30 31 32 33 34 35 36 37 38 39 40 41 42 43 44 45 46 47 48 49 50
741
ASUS45 KSLC 230810
RWRUT

UTAH REGIONAL WEATHER ROUNDUP
NATIONAL WEATHER SERVICE SALT LAKE CITY UT
100 AM MST THU NOV 23 2017

UTZ001>011-023>025-230900-

NORTHERN UTAH

CITY           SKY/WX    TMP DP  RH WIND       PRES   REMARKS
BRIGHAM CITY   MOCLDY    42  39  88 CALM      30.34F
HILL AFB       MOCLDY    50  39  66 E12       30.33F
LOGAN          PTCLDY    38  35  89 SE5       30.33F WCI  34
OGDEN          MOCLDY    46  39  76 S9        30.33F
SALT LAKE CITY MOCLDY    49  41  74 S6        30.33F
TOOELE VALLEY  MOCLDY    43  41  93 CALM      30.34F
WENDOVER       PTCLDY    40  35  83 W3        30.33F
HEBER CITY       N/A     34  32  93 CALM      30.41F
WEST JORDAN    PTCLDY    47  41  78 CALM      30.35F

$$

UTZ011>015-024>027-230900-

CENTRAL/NORTHEAST UTAH

CITY           SKY/WX    TMP DP  RH WIND       PRES   REMARKS
PROVO AIRPORT  PTCLDY    37  34  89 E6        30.38F WCI  32
MOAB/CANYONLAN PTCLDY    40  23  50 CALM      30.37F
DELTA          PTCLDY    37  32  81 CALM      30.37F
PRICE          PTCLDY    36  30  79 NE6       30.40S WCI  31
RICHFIELD      CLEAR     36  36 100 CALM      30.43F
ROOSEVELT      CLOUDY    36  28  75 CALM      30.41S
VERNAL         CLOUDY    37  30  75 W9        30.40R WCI  30

$$

UTZ013>016-019>022-027-230900-

SOUTHERN UTAH

CITY           SKY/WX    TMP DP  RH WIND       PRES   REMARKS
BRYCE CANYON   PTCLDY    29  26  89 W12       30.50F WCI  19
CEDAR CITY     PTCLDY    38  29  70 E7        30.40F WCI  33
MILFORD        CLEAR     37  31  78 SW5       30.38F WCI  33
ST GEORGE      MOSUNNY   51  31  46 SE5       30.30S
HANKSVILLE     MOCLDY    34  16  47 CALM      30.40F
KANAB          CLEAR     46  30  53 N15       30.41F
BLANDING         N/A     44  32  61 N10       30.46S

$$

REGIONAL REPORTS     COLORADO/ARIZONA

CITY           SKY/WX    TMP DP  RH WIND       PRES   REMARKS
CRAIG, CO      CLOUDY    28  25  88 CALM      30.43R FOG
GRAND JUNCTION CLOUDY    36  29  75 CALM      30.40F
RIFLE, CO      CLOUDY    32  30  92 E3        30.44F
MONTROSE, CO   CLOUDY    35  29  78 S6        30.45R WCI  30
CORTEZ, CO     CLOUDY    30  24  78 NE6       30.38S WCI  24
COLORADO CITY    N/A     45  32  61 S5        30.39S
PAGE, AZ       PTCLDY    49  30  48 SW5       30.37S
GRAND CANYON   PTCLDY    26  19  74 CALM      30.43F
KINGMAN, AZ    CLEAR     48  29  47 CALM      30.26F
FLAGSTAFF, AZ  PTCLDY    32  24  72 CALM      30.42F

$$

REGIONAL REPORTS    NEVADA/IDAHO/WYOMING

CITY           SKY/WX    TMP DP  RH WIND       PRES   REMARKS
LAS VEGAS, NV  PTCLDY    62  38  40 SW3       30.21S
ELY, NY        PTCLDY    34  26  72 S14       30.41F WCI  25
ELKO, NV       MOCLDY    42  38  85 SE3       30.32F
POCATELLO, ID  CLOUDY    37  37 100 NW6       30.30F FOG     WCI  32
BURLEY, ID     CLEAR     43  39  86 CALM      30.25S
FORT BRIDGER,    N/A     46  36  66 SW15G21   30.44F
EVANSTON, WY   CLOUDY    41  37  86 SW8       30.42F
ROCK SPRINGS,  CLOUDY    42  35  76 SW9       30.39F
KEMMERER, WY   CLOUDY    37  36  93 NW3       30.42F

$$




USA.gov is the U.S. government's official web portal to all federal, state and local government web resources and services.